CZ-3C DEB, 42477

Orbit data source: Space-Track

CZ-3C DEB, 42477 is space debris in HEO originally from a launch on Fri, 24 Feb 2012 UTC launched from the Xichang Space Center, China (XSC). Debris objects in space refer to the collection of defunct objects orbiting the Earth. Examples of debris include non-operational satellites, rocket bodies, and fragments generated from explosions, collisions, or faulty payload assembly.

Loading next visibility...
Identifier
42477, 2012-008AM
Orbit
HEO
Country
Flag of CNCN / PRC
Related business
Manufacturer
CALT
Mission
Spacecraft
Bus & Motor
Unknown
Mass
Unknown
Launch date (UTC)
2012-02-24 (14 years ago)
Launch vehicle
Unknown
Launch site
Xichang Space Center, China (XSC)
Object type
Payload
Rocket body
Debris
Shape & HBR
Unknown shape, 0.2 m
Radar Cross Section
Medium (>0.1 m² and <1 m²)

Expand to show TLE details & history
Last TLE update: 3 days ago

TLE from 3 days ago
0 CZ-3C DEB
1 42477U 12008AM  25291.60994284  .00005937  00000-0  86797-2 0  9999
2 42477  19.6036 137.0836 6928819 309.4530   7.3803  2.66246126 99471
Epoch: 2025-10-18T14:38Z
TLE epoch observation values (Epoch: 2025-10-18T14:38:19.061Z)
Latitude
-0.00003°
Longitude
-109.72712°
Altitude
1,582.199 km
Speed
9.056 km/s
True Right ascension
09h 08m 45s
True Declination
0° 00' 00"
Sunlit
Object was in daylight at epoch
Visualization orbit readout
Latitude
Unknown
Longitude
Unknown
Altitude
Unknown
Speed
Unknown
Apparent Right ascension
Unknown
Apparent Declination
Unknown
Sunlit
N/A
Visualization observer readout
Local Sidereal Time
22:01:16
Azimuth
Unknown
Elevation
Unknown
Doppler factor
Unknown
Orbital elements
Apogee altitude
30,854.827 km
Perigee altitude
376.568 km
Semi-major axis
21,993.834 km
Eccentricity
0.69288
Inclination
19.6036°
RAAN
137.0836°
Arg. of periapsis
309.453°
True anomaly
50.4685°
Mean anomaly
7.3803°
Eccentric anomaly
22.70129°
Mean motion
0.66541 °/min
Orbital period
541.02 mins
BSTAR
0.0086797
Loading maneuver chart data...
Computing Atmospheric mass density...
Loading historical data...
Loading historical data...
Loading historical data...
Loading historical data...
Loading historical data...
Loading historical data...
Loading historical data...

Documentation

Showing up to 5 results
|